Location: Unspecified
(0.0000°N, 0.0000°E)
Time: 12:56:30
(UTC+00:00)

CZ-3B DEB - Pass Details

Date: 22 February 2026
Orbit: 716 x 41326 km, 26.5° (Epoch: 4 March)

Event Time Altitude Azimuth Distance (km) Brightness Sun altitude
Exits shadow 03:10:46 43° 259° (W) 13,548 ? -44.8°
Maximum altitude 04:08:22 55° 234° (SW) 23,951 ? -30.7°
Drops below altitude 10° 14:43:30 10° 24° (NNE) 2,839 ? 51.4°
Sets 14:45:23 0° 36° (NE) 3,428 ? 50.9°
